Location: Bottens
(46.6171°N, 6.6605°E)
Time: 23:32:55
(UTC+00:00)

USA 215 - Visible Passes

Search period start: 23 October 2021 00:00
Search period end: 02 November 2021 00:00
Orbit: 1102 x 1106 km, 123.0° (Epoch: 22 October)

Date Brightness Start Highest point End Pass type
(mag) Time Alt. Az. Time Alt. Az. Time Alt. Az.
23 Oct 3.9 18:05:33 13° NE 18:11:06 49° NNW 18:17:20 10° W visible
23 Oct 4.2 19:52:54 35° N 19:53:19 36° N 19:59:09 10° WNW visible
23 Oct 5.5 21:40:15 17° NW 21:40:15 17° NW 21:41:42 10° NW visible
24 Oct 3.5 17:22:03 10° NE 17:28:34 70° NNW 17:35:03 10° WSW visible
24 Oct 4.2 19:08:28 28° NNE 19:11:02 39° N 19:16:59 10° WNW visible
24 Oct 4.9 20:55:49 27° NW 20:55:49 27° NW 20:59:04 10° NW visible
25 Oct 3.9 18:24:02 19° NE 18:28:39 49° NNW 18:34:53 10° W visible
25 Oct 4.4 20:11:24 35° N 20:11:24 35° N 20:16:41 10° WNW visible
25 Oct 5.8 21:58:45 12° NW 21:58:45 12° NW 21:59:15 10° NW visible
26 Oct 3.5 17:39:38 10° NE 17:46:07 70° NNW 17:52:36 10° WSW visible
26 Oct 4.2 19:26:59 34° NNE 19:28:35 39° N 19:34:32 10° WNW visible
26 Oct 5.2 21:14:20 21° NW 21:14:20 21° NW 21:16:37 10° NW visible
27 Oct 3.3 16:56:49 10° NE 17:03:23 75° SE 17:09:55 10° SW visible
27 Oct 3.9 18:42:35 25° NE 18:46:12 49° NNW 18:52:25 10° W visible
27 Oct 4.6 20:29:56 32° NNW 20:29:56 32° NNW 20:34:14 10° WNW visible
28 Oct 3.5 17:58:11 15° NE 18:03:40 70° NNW 18:10:09 10° WSW visible
28 Oct 4.1 19:45:32 38° N 19:46:07 39° N 19:52:04 10° WNW visible
28 Oct 5.6 21:32:54 16° NW 21:32:54 16° NW 21:34:10 10° NW visible
29 Oct 3.3 17:14:21 10° NE 17:20:56 76° SE 17:27:29 10° SW visible
29 Oct 3.9 19:01:10 33° NNE 19:03:45 49° NNW 19:09:58 10° W visible
29 Oct 4.9 20:48:31 27° NW 20:48:31 27° NW 20:51:47 10° WNW visible
30 Oct 3.4 18:16:48 22° NE 18:21:13 69° NNW 18:27:42 10° WSW visible
30 Oct 4.3 20:04:09 38° NNW 20:04:09 38° NNW 20:09:37 10° WNW visible
30 Oct 5.9 21:51:31 11° NW 21:51:31 11° NW 21:51:43 10° NW visible
31 Oct 3.2 17:32:26 13° NE 17:38:30 76° SE 17:45:02 10° SW visible
31 Oct 3.9 19:19:48 42° NNE 19:21:18 49° NNW 19:27:31 10° W visible
31 Oct 5.3 21:07:09 21° NW 21:07:09 21° NW 21:09:20 10° WNW visible
01 Nov 3.8 16:49:20 10° ENE 16:55:32 43° SE 17:01:42 10° SSW visible
01 Nov 3.4 18:35:28 31° NE 18:38:46 69° NNW 18:45:15 10° WSW visible
01 Nov 4.6 20:22:49 34° NW 20:22:49 34° NW 20:27:10 10° WNW visible
